******** Week 355 almanac for PRN-1 ******** ID: 1 Health: 0 Eccentricity: 0.001443862915 Time of Applicability(s): 503808 Orbital Inclination(rad): 0.9584287994 Rate of Right Ascen(r/s): -8.034620388e-09 SQRT(A) (m 1/2): 5153.583008 Right Ascen at Week(rad): -2.522099607 Argument of Perigee(rad): 0.006274490755 Mean Anom(rad): 1.175558462 Af0(s): 0.0002675543823 Af1(s/s): -3.637979e-12 week: 355 ******** Week 355 almanac for PRN-2 ******** ID: 2 Health: 0 Eccentricity: 0.01697683334 Time of Applicability(s): 503808 Orbital Inclination(rad): 0.963893606 Rate of Right Ascen(r/s): -7.828897533e-09 SQRT(A) (m 1/2): 5153.5625 Right Ascen at Week(rad): -2.684732654 Argument of Perigee(rad): -0.8372288129 Mean Anom(rad): 2.578115372 Af0(s): 2.185655518e-05 Af1(s/s): 7.275958e-12 week: 355 ******** Week 355 almanac for PRN-3 ******** ID: 3 Health: 0 Eccentricity: 0.006380081177 Time of Applicability(s): 503808 Orbital Inclination(rad): 0.9926497536 Rate of Right Ascen(r/s): -7.988904198e-09 SQRT(A) (m 1/2): 5153.597656 Right Ascen at Week(rad): -1.535768311 Argument of Perigee(rad): 1.205703282 Mean Anom(rad): -1.036219377 Af0(s): 0.0004612486816 Af1(s/s): -1.091394e-11 week: 355 ******** Week 355 almanac for PRN-4 ******** ID: 4 Health: 0 Eccentricity: 0.003718852997 Time of Applicability(s): 503808 Orbital Inclination(rad): 0.9705987798 Rate of Right Ascen(r/s): -7.634603726e-09 SQRT(A) (m 1/2): 5153.706055 Right Ascen at Week(rad): -0.4645108046 Argument of Perigee(rad): -2.90144227 Mean Anom(rad): 1.995010176 Af0(s): 3.240799561e-05 Af1(s/s): 3.637979e-12 week: 355 ******** Week 355 almanac for PRN-5 ******** ID: 5 Health: 0 Eccentricity: 0.005366802216 Time of Applicability(s): 503808 Orbital Inclination(rad): 0.9792334139 Rate of Right Ascen(r/s): -8.137481816e-09 SQRT(A) (m 1/2): 5153.638184 Right Ascen at Week(rad): -1.59513891 Argument of Perigee(rad): 1.420912248 Mean Anom(rad): 2.622909409 Af0(s): -0.0001801281616 Af1(s/s): 0 week: 355 ******** Week 355 almanac for PRN-6 ******** ID: 6 Health: 0 Eccentricity: 0.003875732422 Time of Applicability(s): 503808 Orbital Inclination(rad): 0.9873707026 Rate of Right Ascen(r/s): -7.726036106e-09 SQRT(A) (m 1/2): 5153.576172 Right Ascen at Week(rad): -2.572440092 Argument of Perigee(rad): -0.6085754193 Mean Anom(rad): 0.328020969 Af0(s): -0.0004800905395 Af1(s/s): -3.637979e-12 week: 355 ******** Week 355 almanac for PRN-7 ******** ID: 7 Health: 0 Eccentricity: 0.0202665329 Time of Applicability(s): 503808 Orbital Inclination(rad): 0.9510944538 Rate of Right Ascen(r/s): -7.748894201e-09 SQRT(A) (m 1/2): 5153.578613 Right Ascen at Week(rad): 0.5439463668 Argument of Perigee(rad): -2.001066703 Mean Anom(rad): -0.5715209448 Af0(s): -0.0001122974731 Af1(s/s): -3.637979e-12 week: 355 ******** Week 355 almanac for PRN-8 ******** ID: 8 Health: 0 Eccentricity: 0.01147985458 Time of Applicability(s): 503808 Orbital Inclination(rad): 0.9440537217 Rate of Right Ascen(r/s): -7.783181343e-09 SQRT(A) (m 1/2): 5153.623535 Right Ascen at Week(rad): 2.592265371 Argument of Perigee(rad): 0.509826904 Mean Anom(rad): 2.271695968 Af0(s): 0.0003934179932 Af1(s/s): -3.637979e-12 week: 355 ******** Week 355 almanac for PRN-9 ******** ID: 9 Health: 0 Eccentricity: 0.003334522247 Time of Applicability(s): 503808 Orbital Inclination(rad): 0.9647025412 Rate of Right Ascen(r/s): -7.726036106e-09 SQRT(A) (m 1/2): 5153.529785 Right Ascen at Week(rad): -0.5285222949 Argument of Perigee(rad): 2.064312701 Mean Anom(rad): 2.871472345 Af0(s): 0.0006089688477 Af1(s/s): 0 week: 355 ******** Week 355 almanac for PRN-10 ******** ID: 10 Health: 0 Eccentricity: 0.01096725464 Time of Applicability(s): 503808 Orbital Inclination(rad): 0.9922003452 Rate of Right Ascen(r/s): -7.988904198e-09 SQRT(A) (m 1/2): 5153.604004 Right Ascen at Week(rad): -1.53827938 Argument of Perigee(rad): -2.260525922 Mean Anom(rad): -2.015031696 Af0(s): -0.0004627560303 Af1(s/s): -3.637979e-12 week: 355 ******** Week 355 almanac for PRN-11 ******** ID: 11 Health: 0 Eccentricity: 0.002239227295 Time of Applicability(s): 503808 Orbital Inclination(rad): 0.9642171801 Rate of Right Ascen(r/s): -7.966046103e-09 SQRT(A) (m 1/2): 5153.513672 Right Ascen at Week(rad): -2.552963854 Argument of Perigee(rad): -2.285415659 Mean Anom(rad): 1.338242443 Af0(s): -0.0003602563232 Af1(s/s): 1.455192e-11 week: 355 ******** Week 355 almanac for PRN-12 ******** ID: 12 Health: 0 Eccentricity: 0.009075164795 Time of Applicability(s): 503808 Orbital Inclination(rad): 0.9587463814 Rate of Right Ascen(r/s): -7.908900866e-09 SQRT(A) (m 1/2): 5153.491211 Right Ascen at Week(rad): 1.661822508 Argument of Perigee(rad): 1.53989388 Mean Anom(rad): -1.183129122 Af0(s): -0.0004800905395 Af1(s/s): 0 week: 355 ******** Week 355 almanac for PRN-13 ******** ID: 13 Health: 0 Eccentricity: 0.009942054748 Time of Applicability(s): 503808 Orbital Inclination(rad): 0.9763212472 Rate of Right Ascen(r/s): -7.531742299e-09 SQRT(A) (m 1/2): 5153.634277 Right Ascen at Week(rad): -0.353888544 Argument of Perigee(rad): 0.999565251 Mean Anom(rad): 2.007544177 Af0(s): 0.0005441528564 Af1(s/s): 0 week: 355 ******** Week 355 almanac for PRN-14 ******** ID: 14 Health: 0 Eccentricity: 0.006572723389 Time of Applicability(s): 503808 Orbital Inclination(rad): 0.9420823167 Rate of Right Ascen(r/s): -8.103194673e-09 SQRT(A) (m 1/2): 5153.579102 Right Ascen at Week(rad): 1.607657931 Argument of Perigee(rad): -2.760419776 Mean Anom(rad): -1.384847221 Af0(s): 0.000578821875 Af1(s/s): 3.637979e-12 week: 355 ******** Week 355 almanac for PRN-15 ******** ID: 15 Health: 0 Eccentricity: 0.01660776138 Time of Applicability(s): 503808 Orbital Inclination(rad): 0.9424538276 Rate of Right Ascen(r/s): -8.023191341e-09 SQRT(A) (m 1/2): 5153.635254 Right Ascen at Week(rad): -0.6717839665 Argument of Perigee(rad): 1.495223805 Mean Anom(rad): 1.269006205 Af0(s): 0.0003014697266 Af1(s/s): 3.637979e-12 week: 355 ******** Week 355 almanac for PRN-16 ******** ID: 16 Health: 0 Eccentricity: 0.01505327225 Time of Applicability(s): 503808 Orbital Inclination(rad): 0.9578895093 Rate of Right Ascen(r/s): -7.954617056e-09 SQRT(A) (m 1/2): 5153.566895 Right Ascen at Week(rad): 1.678860705 Argument of Perigee(rad): 0.9249694431 Mean Anom(rad): -3.00331305 Af0(s): 0.0001567642578 Af1(s/s): 7.275958e-12 week: 355 ******** Week 355 almanac for PRN-17 ******** ID: 17 Health: 0 Eccentricity: 0.01274776459 Time of Applicability(s): 503808 Orbital Inclination(rad): 0.9598369459 Rate of Right Ascen(r/s): -7.646032773e-09 SQRT(A) (m 1/2): 5153.52832 Right Ascen at Week(rad): 2.696444238 Argument of Perigee(rad): -1.130239367 Mean Anom(rad): 2.173958248 Af0(s): -3.843739014e-05 Af1(s/s): -1.091394e-11 week: 355 ******** Week 355 almanac for PRN-18 ******** ID: 18 Health: 0 Eccentricity: 0.005704879761 Time of Applicability(s): 503808 Orbital Inclination(rad): 0.9723364924 Rate of Right Ascen(r/s): -7.863184676e-09 SQRT(A) (m 1/2): 5153.600098 Right Ascen at Week(rad): -2.577034919 Argument of Perigee(rad): -2.857302497 Mean Anom(rad): 0.1892777247 Af0(s): -0.0003459365112 Af1(s/s): 1.091394e-11 week: 355 ******** Week 355 almanac for PRN-19 ******** ID: 19 Health: 0 Eccentricity: 0.01102876663 Time of Applicability(s): 503808 Orbital Inclination(rad): 0.9590519791 Rate of Right Ascen(r/s): -7.623174678e-09 SQRT(A) (m 1/2): 5153.666504 Right Ascen at Week(rad): 2.740340207 Argument of Perigee(rad): 2.91942385 Mean Anom(rad): -2.259258964 Af0(s): 0.0005433991821 Af1(s/s): 0 week: 355 ******** Week 355 almanac for PRN-21 ******** ID: 21 Health: 0 Eccentricity: 0.0006279945373 Time of Applicability(s): 503808 Orbital Inclination(rad): 0.962083988 Rate of Right Ascen(r/s): -8.297488481e-09 SQRT(A) (m 1/2): 5153.695312 Right Ascen at Week(rad): -1.528581146 Argument of Perigee(rad): -0.4435088249 Mean Anom(rad): -1.387072916 Af0(s): 0.0003082527954 Af1(s/s): 7.275958e-12 week: 355 ******** Week 355 almanac for PRN-22 ******** ID: 22 Health: 0 Eccentricity: 0.01217556 Time of Applicability(s): 503808 Orbital Inclination(rad): 0.9573262507 Rate of Right Ascen(r/s): -7.954617056e-09 SQRT(A) (m 1/2): 5153.5625 Right Ascen at Week(rad): 1.682204304 Argument of Perigee(rad): -0.9962778283 Mean Anom(rad): 2.825703467 Af0(s): -4.14520874e-05 Af1(s/s): 3.637979e-12 week: 355 ******** Week 355 almanac for PRN-23 ******** ID: 23 Health: 0 Eccentricity: 0.006000518799 Time of Applicability(s): 503808 Orbital Inclination(rad): 0.9872029234 Rate of Right Ascen(r/s): -8.046049436e-09 SQRT(A) (m 1/2): 5153.65332 Right Ascen at Week(rad): -1.570236439 Argument of Perigee(rad): -2.741792171 Mean Anom(rad): -0.9209513572 Af0(s): 0.0004793368652 Af1(s/s): 3.637979e-12 week: 355 ******** Week 355 almanac for PRN-24 ******** ID: 24 Health: 0 Eccentricity: 0.01784467697 Time of Applicability(s): 503808 Orbital Inclination(rad): 0.9351554347 Rate of Right Ascen(r/s): -7.897471818e-09 SQRT(A) (m 1/2): 5153.595703 Right Ascen at Week(rad): 0.4360321666 Argument of Perigee(rad): 1.131028453 Mean Anom(rad): 0.4099279032 Af0(s): -0.0001122974731 Af1(s/s): 1.455192e-11 week: 355 ******** Week 355 almanac for PRN-25 ******** ID: 25 Health: 0 Eccentricity: 0.01294660568 Time of Applicability(s): 503808 Orbital Inclination(rad): 0.9470737463 Rate of Right Ascen(r/s): -8.057478483e-09 SQRT(A) (m 1/2): 5153.668457 Right Ascen at Week(rad): 1.568302485 Argument of Perigee(rad): 1.153054335 Mean Anom(rad): -1.348623029 Af0(s): 0.0003527195801 Af1(s/s): -3.637979e-12 week: 355 ******** Week 355 almanac for PRN-26 ******** ID: 26 Health: 0 Eccentricity: 0.01098060608 Time of Applicability(s): 503808 Orbital Inclination(rad): 0.9278690259 Rate of Right Ascen(r/s): -8.297488481e-09 SQRT(A) (m 1/2): 5153.627441 Right Ascen at Week(rad): 1.494318247 Argument of Perigee(rad): 0.7048143629 Mean Anom(rad): -2.174916986 Af0(s): -0.000252480896 Af1(s/s): -7.275958e-12 week: 355 ******** Week 355 almanac for PRN-27 ******** ID: 27 Health: 0 Eccentricity: 0.0142455101 Time of Applicability(s): 503808 Orbital Inclination(rad): 0.9531737168 Rate of Right Ascen(r/s): -7.680319916e-09 SQRT(A) (m 1/2): 5153.617188 Right Ascen at Week(rad): 2.624012332 Argument of Perigee(rad): 0.8715007001 Mean Anom(rad): 2.365396503 Af0(s): -2.336390381e-05 Af1(s/s): -7.275958e-12 week: 355 ******** Week 355 almanac for PRN-28 ******** ID: 28 Health: 0 Eccentricity: 0.0004043579102 Time of Applicability(s): 503808 Orbital Inclination(rad): 0.9620600196 Rate of Right Ascen(r/s): -7.680319916e-09 SQRT(A) (m 1/2): 5153.72168 Right Ascen at Week(rad): 0.5178623268 Argument of Perigee(rad): 0.2552550024 Mean Anom(rad): -0.466797919 Af0(s): -0.0004770758423 Af1(s/s): 7.275958e-12 week: 355 ******** Week 355 almanac for PRN-29 ******** ID: 29 Health: 0 Eccentricity: 0.003297805786 Time of Applicability(s): 503808 Orbital Inclination(rad): 0.9624914517 Rate of Right Ascen(r/s): -7.623174678e-09 SQRT(A) (m 1/2): 5153.731934 Right Ascen at Week(rad): 2.713069354 Argument of Perigee(rad): 2.743834358 Mean Anom(rad): 2.242032765 Af0(s): -0.0003037307495 Af1(s/s): 7.275958e-12 week: 355 ******** Week 355 almanac for PRN-30 ******** ID: 30 Health: 0 Eccentricity: 0.007930755615 Time of Applicability(s): 503808 Orbital Inclination(rad): 0.9363538572 Rate of Right Ascen(r/s): -7.931758961e-09 SQRT(A) (m 1/2): 5153.716309 Right Ascen at Week(rad): 0.5353948734 Argument of Perigee(rad): -2.339308344 Mean Anom(rad): -0.6972759109 Af0(s): 8.29041748e-05 Af1(s/s): 1.091394e-11 week: 355 ******** Week 355 almanac for PRN-31 ******** ID: 31 Health: 0 Eccentricity: 0.01084661484 Time of Applicability(s): 503808 Orbital Inclination(rad): 0.9548395241 Rate of Right Ascen(r/s): -7.760323248e-09 SQRT(A) (m 1/2): 5153.711426 Right Ascen at Week(rad): 0.5680301648 Argument of Perigee(rad): 0.9336022046 Mean Anom(rad): -1.649345057 Af0(s): -0.0001341540283 Af1(s/s): 3.637979e-12 week: 355 ******** Week 355 almanac for PRN-32 ******** ID: 32 Health: 255 Eccentricity: 0.009233474731 Time of Applicability(s): 503808 Orbital Inclination(rad): 0.9677764949 Rate of Right Ascen(r/s): -7.646032773e-09 SQRT(A) (m 1/2): 5153.679688 Right Ascen at Week(rad): -0.5116286573 Argument of Perigee(rad): -2.017352516 Mean Anom(rad): 2.966114391 Af0(s): -0.0001100364502 Af1(s/s): 1.818989e-11 week: 355